EW5205 Weather Reports


Display with metric or nautical units.
time (UTC)temp
F
wind
direction
speed
MPH
gust
MPH
rain 1hr
in
rain 24hr
in
rain mn
in
humidity
%
barometer
mb
20260903214547 91 94 11.0 18.0 0.00 0.00 0.00 24 1018.9
20260903213011 92 52 1.0 7.0 0.00 0.00 0.00 22 1019.2
20260903211619 90 299 0.0 1.0 0.00 0.00 0.00 21 1019.2
20260903210010 91 236 1.0 9.0 0.00 0.00 0.00 21 1019.3
20260903204604 90 240 1.0 9.0 0.00 0.00 0.00 21 1019.4
20260903203017 92 195 7.0 13.0 0.00 0.00 0.00 20 1019.5
20260903201610 91 219 6.0 10.0 0.00 0.00 0.00 20 1019.6
20260903194548 91 246 1.0 12.0 0.00 0.00 0.00 21 1020.1
20260903193008 91 268 0.0 10.0 0.00 0.00 0.00 21 1020.4
20260903191601 90 223 0.0 9.0 0.00 0.00 0.00 21 1020.6
20260903184628 88 297 0.0 4.0 0.00 0.00 0.00 23 1021.3
20260903183010 88 270 3.0 10.0 0.00 0.00 0.00 23 1021.6
20260903181555 88 260 3.0 8.0 0.00 0.00 0.00 22 1022.0
20260903174604 87 33 0.0 1.0 0.00 0.00 0.00 25 1022.4
20260903173021 87 10 0.0 1.0 0.00 0.00 0.00 24 1022.5
20260903171607 86 311 0.0 1.0 0.00 0.00 0.00 24 1022.6
20260903164553 85 249 0.0 0.0 0.00 0.00 0.00 26 1022.7
20260903163010 83 243 0.0 1.0 0.00 0.00 0.00 27 1022.6
20260903161558 84 56 0.0 1.0 0.00 0.00 0.00 27 1022.7
20260903154531 80 235 0.0 6.0 0.00 0.00 0.00 30 1022.7
20260903153118 80 37 0.0 1.0 0.00 0.00 0.00 31 1022.7
20260903151549 78 74 0.0 0.0 0.00 0.00 0.00 33 1022.8
20260903150028 76 41 0.0 0.0 0.00 0.00 0.00 36 1022.9
20260903144522 74 10 0.0 0.0 0.00 0.00 0.00 40 1022.9
20260903143018 72 29 0.0 1.0 0.00 0.00 0.00 42 1022.9
20260903141518 70 43 0.0 0.0 0.00 0.00 0.00 50 1022.9
20260903140010 66 101 0.0 0.0 0.00 0.00 0.00 55 1022.8
20260903134505 64 17 0.0 0.0 0.00 0.00 0.00 55 1022.6
20260903133100 66 342 0.0 0.0 0.00 0.00 0.00 51 1022.5
20260903133003 66 346 0.0 0.0 0.00 0.00 0.00 51 1022.5
20260903131600 67 121 0.0 0.0 0.00 0.00 0.00 49 1022.2
20260903130107 65 121 0.0 0.0 0.00 0.00 0.00 53 1022.0
20260903124547 65 114 0.0 0.0 0.00 0.00 0.00 52 1021.9
20260903123042 0 0.0 0.0 0.00 0.00 0.00 1021.8
20260903121541 0 0.0 0.0 0.00 0.00 0.00 1021.6
20260903120034 0 0.0 0.0 0.00 0.00 0.00 1021.5
20260903114530 0 0.0 0.0 0.00 0.00 0.00 1021.5
20260903113029 0 0.0 0.0 0.00 0.00 0.00 1021.3
20260903111537 0 0.0 0.0 0.00 0.00 0.00 1021.3
20260903110017 -90 98 0.0 0.0 0.00 0.00 0.00 50 1021.1
20260903104515 67 74 0.0 0.0 0.00 0.00 0.00 50 1021.0
20260903103011 67 49 0.0 0.0 0.00 0.00 0.00 48 1021.1
20260903101510 67 17 0.0 0.0 0.00 0.00 0.00 47 1021.1
20260903100007 68 2 0.0 0.0 0.00 0.00 0.00 45 1020.7
20260903094505 70 80 0.0 0.0 0.00 0.00 0.00 45 1020.7
20260903093003 69 232 0.0 0.0 0.00 0.00 0.00 46 1020.7
20260903091604 69 232 0.0 0.0 0.00 0.00 0.00 45 1020.5
20260903090057 70 232 0.0 0.0 0.00 0.00 0.00 43 1020.6
20260903084554 71 232 0.0 0.0 0.00 0.00 0.00 43 1020.6
20260903083050 73 232 0.0 0.0 0.00 0.00 0.00 40 1020.7
20260903081549 72 118 0.0 0.0 0.00 0.00 0.00 41 1020.8
20260903080048 75 118 0.0 0.0 0.00 0.00 0.00 39 1020.8
20260903074548 74 299 0.0 0.0 0.00 0.00 0.00 39 1021.0
20260903073048 73 245 0.0 0.0 0.00 0.00 0.00 42 1020.8
20260903071544 73 60 0.0 0.0 0.00 0.00 0.00 41 1020.8
20260903070045 72 35 0.0 0.0 0.00 0.00 0.00 43 1020.8
20260903064538 73 318 0.0 0.0 0.00 0.00 0.00 39 1020.9
20260903063035 74 104 0.0 0.0 0.00 0.00 0.00 39 1020.8
20260903061548 75 88 0.0 0.0 0.00 0.00 0.00 37 1020.7
20260903060031 77 93 0.0 0.0 0.00 0.00 0.00 36 1020.8
20260903054522 78 128 0.0 0.0 0.00 0.00 0.00 35 1020.9
20260903053017 78 87 0.0 0.0 0.00 0.00 0.00 35 1020.9
20260903051512 78 103 0.0 0.0 0.00 0.00 0.00 34 1020.9
20260903050010 78 121 0.0 0.0 0.00 0.00 0.00 33 1020.9
20260903044504 78 124 0.0 0.0 0.00 0.00 0.00 33 1021.1
20260903043103 79 88 0.0 0.0 0.00 0.00 0.00 33 1021.1
20260903041558 80 104 0.0 0.0 0.00 0.00 0.00 31 1021.0
20260903040056 79 89 0.0 0.0 0.00 0.00 0.00 32 1021.0
20260903034546 79 95 0.0 0.0 0.00 0.00 0.00 33 1020.9
20260903033049 79 95 0.0 0.0 0.00 0.00 0.00 32 1020.9
20260903031542 80 121 0.0 0.0 0.00 0.00 0.00 31 1020.8
20260903024528 80 149 0.0 0.0 0.00 0.00 0.00 31 1020.4
20260903023024 81 156 0.0 0.0 0.00 0.00 0.00 30 1020.2
20260903021520 82 189 0.0 0.0 0.00 0.00 0.00 29 1020.0
20260903020015 83 204 0.0 0.0 0.00 0.00 0.00 28 1019.9
20260903014510 84 228 0.0 0.0 0.00 0.00 0.00 27 1019.8
20260903013006 85 228 0.0 1.0 0.00 0.00 0.00 26 1019.6
20260903011507 87 230 0.0 0.0 0.00 0.00 0.00 25 1019.7
20260903010116 88 184 0.0 1.0 0.00 0.00 0.00 25 1019.6
20260903004551 89 239 2.0 8.0 0.00 0.00 0.00 24 1019.4
20260903003047 89 283 4.0 9.0 0.00 0.00 0.00 25 1019.5
20260903001543 89 238 0.0 1.0 0.00 0.00 0.00 25 1019.5
20260903000039 91 256 0.0 30.0 0.00 0.00 0.00 23 1019.6
20260902234532 92 187 7.0 15.0 0.00 0.00 0.00 22 1019.6
20260902233028 91 215 9.0 13.0 0.00 0.00 0.00 23 1019.7
20260902231530 89 226 0.0 8.0 0.00 0.00 0.00 23 1019.8
20260902230019 90 250 0.0 3.0 0.00 0.00 0.00 23 1019.8
20260902224529 92 251 7.0 15.0 0.00 0.00 0.00 22 1019.9
20260902223002 92 240 3.0 14.0 0.00 0.00 0.00 20 1020.1
20260902221604 92 291 4.0 14.0 0.00 0.00 0.00 20 1020.4